Location: Handeloh
(53.2500°N, 9.8330°E)
Time: 03:53:30
(UTC+01:00)

S-56A Canister/Altair - All Passes

Search period start: 17 November 2019 00:00
Search period end: 27 November 2019 00:00
Orbit: 634 x 2498 km, 38.9° (Epoch: 14 November)

Date Brightness Start Highest point End Pass type
(mag) Time Alt. Az. Time Alt. Az. Time Alt. Az.
17 Nov - 17:35:13 10° SSW 17:40:13 17° SSE 17:44:18 10° SE visible
17 Nov - 19:37:58 10° SW 19:43:12 21° S 19:47:20 10° SE visible
17 Nov - 21:42:46 10° SW 21:45:42 14° SSW 21:48:18 10° S visible
18 Nov - 17:02:12 10° SSW 17:07:32 17° SSE 17:11:52 10° ESE visible
18 Nov - 19:04:47 10° SW 19:10:38 23° S 19:15:07 10° SE visible
18 Nov - 21:09:28 10° WSW 21:13:14 16° SSW 21:16:26 10° SSE visible
19 Nov - 16:29:10 10° SSW 16:34:48 17° SSE 16:39:23 10° ESE daylight
19 Nov - 18:31:33 10° SW 18:38:00 24° S 18:42:53 10° SE visible
19 Nov - 20:36:10 10° WSW 20:40:44 19° SSW 20:44:28 10° SSE visible
20 Nov - 15:56:11 10° S 16:02:02 17° SSE 16:06:50 10° ESE daylight
20 Nov - 17:58:17 10° SW 18:05:20 25° S 18:10:36 10° ESE visible
20 Nov - 20:02:52 10° WSW 20:08:13 21° SSW 20:12:25 10° SSE visible
21 Nov - 15:23:13 10° S 15:29:13 16° SSE 15:34:11 10° ESE daylight
21 Nov - 17:24:59 10° SW 17:32:37 26° S 17:38:18 10° ESE visible
21 Nov - 19:29:31 10° WSW 19:35:40 24° SSW 19:40:20 10° SE visible
21 Nov - 21:36:37 10° SW 21:37:53 11° SW 21:39:04 10° SSW visible
22 Nov - 14:50:19 10° S 14:56:22 16° SSE 15:01:27 10° ESE daylight
22 Nov - 16:51:39 10° SW 16:59:52 26° S 17:05:57 10° ESE visible
22 Nov - 18:56:07 10° WSW 19:03:04 26° S 19:08:12 10° SE visible
22 Nov - 21:02:22 10° WSW 21:05:25 13° SSW 21:08:06 10° S visible
23 Nov - 14:17:32 10° S 14:23:29 15° SSE 14:28:36 10° ESE daylight
23 Nov - 16:18:19 10° SW 16:27:03 27° SSE 16:33:33 10° ESE daylight
23 Nov - 18:22:41 10° WSW 18:30:24 28° S 18:36:01 10° SE visible
23 Nov - 20:28:37 10° WSW 20:32:57 16° SSW 20:36:31 10° S visible
24 Nov - 13:44:52 10° S 13:50:35 14° SE 13:55:34 10° ESE daylight
24 Nov - 15:44:59 10° SW 15:54:11 27° SSE 16:01:04 10° ESE daylight
24 Nov - 17:49:13 10° WSW 17:57:41 30° S 18:03:48 10° SE visible
24 Nov - 19:55:00 10° WSW 20:00:26 19° SSW 20:04:43 10° SSE visible
25 Nov - 13:12:24 10° SSE 13:17:39 13° SE 13:22:21 10° ESE daylight
25 Nov - 15:11:40 10° SSW 15:21:15 27° SSE 15:28:33 10° ESE daylight
25 Nov - 17:15:43 10° WSW 17:24:56 32° S 17:31:31 10° ESE visible
25 Nov - 19:21:24 10° WSW 19:27:52 22° SSW 19:32:49 10° SSE visible
26 Nov - 12:40:13 10° SSE 12:44:42 12° SE 12:48:49 10° ESE daylight
26 Nov - 14:38:24 10° SSW 14:48:18 26° SSE 14:55:58 10° ESE daylight
26 Nov - 16:42:11 10° WSW 16:52:06 33° S 16:59:11 10° ESE visible
26 Nov - 18:47:48 10° WSW 18:55:15 25° SSW 19:00:47 10° SSE visible
